{"data":{"norad_id":67946,"epoch":"2026-09-19T11:47:17.888928Z","epoch_age_seconds":150366,"freshness":"FRESH","line1":"1 67946U 26037Q   26262.49117927  .00011098  00000+0  41216-3 0  9993","line2":"2 67946  43.0031 175.9151 0002289 271.0336  89.0253 15.27584489 32989","mean_motion":15.27584489,"eccentricity":0.0002289,"inclination_deg":43.0031,"raan_deg":175.9151,"arg_perigee_deg":271.0336,"mean_anomaly_deg":89.0253,"bstar":0.00041216,"rev_number":3298,"period_min":94.266471698902,"perigee_km":481.46513197107,"apogee_km":484.60617681225,"semimajor_km":6861.1726543917,"source":"CELESTRAK","updated_at":"2026-09-20T09:00:43.709657Z"}}